Tracking 19920 objects as of 14-Oct-2019
HD Live streaming from Space Station
objects crossing your sky now

CATSAT-2

Track CATSAT-2 now!
10-day predictions


NORAD ID: 44029
Int'l Code: 1998-067PV
Perigee: 396.3 km
Apogee: 402.5 km
Inclination: 51.6 °
Period: 92.4 minutes
Semi major axis: 6770 km
RCS: Unknown
Launch date: November 20, 1998
Source: United States (US)
Launch site: TYURATAM MISSILE AND SPACE COMPLEX (TTMTR)
aabbcc
Your satellite tracking list
Your tracking list is empty




NASA's NSSDC Master Catalog

Two Line Element Set (TLE):
1 44029U 98067PV  19287.17358935  .00008728  00000-0  11886-3 0  9999
2 44029  51.6376 122.6946 0004626 220.4094 139.6555 15.58409294 39887
Source of the keplerian elements: AFSPC